Location: Beverley
(50.2667°N, 107.9667°W)
Time: 07:57:30
(UTC+00:00)

EO-79 - Pass Details

Date: 04 July 2022
Orbit: 588 x 603 km, 98.0° (Epoch: 09 August)

Event Time Altitude Azimuth Distance (km) Brightness Sun altitude
Rises 09:28:49 0° 10° (N) 2,859 ? -11.2°
Reaches altitude 10° 09:31:01 10° 6° (N) 1,954 ? -11.0°
Maximum altitude 09:35:09 54° 289° (WNW) 733 ? -10.7°
Enters shadow 09:38:35 15° 215° (SW) 1,669 ? -10.4°
